Time,TemperatureF,DewpointF,PressureIn,WindDirection,WindDirectionDegrees,WindSpeedMPH,WindSpeedGustMPH,Humidity,HourlyPrecipIn,Conditions,Clouds,dailyrainin,SolarRadiationWatts/m^2,SoftwareType,DateUTC
2013-05-12 00:11:00,57.0,27.0,-100.00,WSW,237,6.0,10.0,32,0.00,,,0.00,0.000000,,2013-05-12 06:11:00,
2013-05-12 00:21:00,57.0,27.0,-100.00,WSW,237,6.0,10.0,32,0.00,,,0.00,0.000000,,2013-05-12 06:21:00,
2013-05-12 00:32:00,57.0,27.0,-100.00,WSW,237,6.0,10.0,32,0.00,,,0.00,0.000000,,2013-05-12 06:32:00,
2013-05-12 00:42:00,57.0,27.0,-100.00,WSW,237,6.0,10.0,32,0.00,,,0.00,0.000000,,2013-05-12 06:42:00,
2013-05-12 01:11:00,56.0,27.0,-100.00,SW,227,5.0,8.0,33,0.00,,,0.00,0.000000,,2013-05-12 07:11:00,
2013-05-12 01:21:00,56.0,27.0,-100.00,SW,227,5.0,8.0,33,0.00,,,0.00,0.000000,,2013-05-12 07:21:00,
2013-05-12 01:32:00,56.0,27.0,-100.00,SW,227,5.0,8.0,33,0.00,,,0.00,0.000000,,2013-05-12 07:32:00,
2013-05-12 01:42:00,56.0,27.0,-100.00,SW,227,5.0,8.0,33,0.00,,,0.00,0.000000,,2013-05-12 07:42:00,
2013-05-12 02:11:00,57.0,27.0,-100.00,SW,225,5.0,10.0,31,0.00,,,0.00,0.000000,,2013-05-12 08:11:00,
2013-05-12 02:21:00,57.0,27.0,-100.00,SW,225,5.0,10.0,31,0.00,,,0.00,0.000000,,2013-05-12 08:21:00,
2013-05-12 02:32:00,57.0,27.0,-100.00,SW,225,5.0,10.0,31,0.00,,,0.00,0.000000,,2013-05-12 08:32:00,
2013-05-12 02:41:00,57.0,27.0,-100.00,SW,225,5.0,10.0,31,0.00,,,0.00,0.000000,,2013-05-12 08:41:00,
2013-05-12 03:11:00,56.0,26.0,-100.00,SW,228,6.0,9.0,31,0.00,,,0.00,0.000000,,2013-05-12 09:11:00,
2013-05-12 03:21:00,56.0,26.0,-100.00,SW,228,6.0,9.0,31,0.00,,,0.00,0.000000,,2013-05-12 09:21:00,
2013-05-12 03:32:00,56.0,26.0,-100.00,SW,228,6.0,9.0,31,0.00,,,0.00,0.000000,,2013-05-12 09:32:00,
2013-05-12 03:42:00,56.0,26.0,-100.00,SW,228,6.0,9.0,31,0.00,,,0.00,0.000000,,2013-05-12 09:42:00,
2013-05-12 04:12:00,55.0,26.0,-100.00,SW,219,6.0,9.0,32,0.00,,,0.00,0.000000,,2013-05-12 10:12:00,
2013-05-12 04:22:00,55.0,26.0,-100.00,SW,219,6.0,9.0,32,0.00,,,0.00,0.000000,,2013-05-12 10:22:00,
2013-05-12 04:33:00,55.0,26.0,-100.00,SW,219,6.0,9.0,32,0.00,,,0.00,0.000000,,2013-05-12 10:33:00,
2013-05-12 04:42:00,55.0,26.0,-100.00,SW,219,6.0,9.0,32,0.00,,,0.00,0.000000,,2013-05-12 10:42:00,
2013-05-12 05:12:00,54.0,27.0,-100.00,SW,235,5.0,10.0,35,0.00,,,0.00,0.000000,,2013-05-12 11:12:00,
2013-05-12 05:21:00,54.0,27.0,-100.00,SW,235,5.0,10.0,35,0.00,,,0.00,0.000000,,2013-05-12 11:21:00,
2013-05-12 05:32:00,54.0,27.0,-100.00,SW,235,5.0,10.0,35,0.00,,,0.00,0.000000,,2013-05-12 11:32:00,
2013-05-12 05:42:00,54.0,27.0,-100.00,SW,235,5.0,10.0,35,0.00,,,0.00,0.000000,,2013-05-12 11:42:00,
2013-05-12 06:11:00,48.0,28.0,-100.00,SE,125,5.0,7.0,46,0.00,,,0.00,0.000000,,2013-05-12 12:11:00,
2013-05-12 06:21:00,48.0,28.0,-100.00,SE,125,5.0,7.0,46,0.00,,,0.00,0.000000,,2013-05-12 12:21:00,
2013-05-12 06:32:00,48.0,28.0,-100.00,SE,125,5.0,7.0,46,0.00,,,0.00,0.000000,,2013-05-12 12:32:00,
2013-05-12 06:41:00,48.0,28.0,-100.00,SE,125,5.0,7.0,46,0.00,,,0.00,0.000000,,2013-05-12 12:41:00,
2013-05-12 07:11:00,53.0,31.0,-100.00,SSW,203,5.0,7.0,42,0.00,,,-99.99,23.000000,,2013-05-12 13:11:00,
2013-05-12 07:21:00,53.0,31.0,-100.00,SSW,203,5.0,7.0,42,0.00,,,-99.99,23.000000,,2013-05-12 13:21:00,
2013-05-12 07:31:00,53.0,31.0,-100.00,SSW,203,5.0,7.0,42,0.00,,,-99.99,23.000000,,2013-05-12 13:31:00,
2013-05-12 07:41:00,53.0,31.0,-100.00,SSW,203,5.0,7.0,42,0.00,,,-99.99,23.000000,,2013-05-12 13:41:00,
2013-05-12 08:11:00,60.0,34.0,-100.00,North,3,3.0,8.0,37,0.00,,,0.00,189.000000,,2013-05-12 14:11:00,
2013-05-12 08:21:00,60.0,34.0,-100.00,North,3,3.0,8.0,37,0.00,,,0.00,189.000000,,2013-05-12 14:21:00,
2013-05-12 08:31:00,60.0,34.0,-100.00,North,3,3.0,8.0,37,0.00,,,0.00,189.000000,,2013-05-12 14:31:00,
2013-05-12 08:42:00,60.0,34.0,-100.00,North,3,3.0,8.0,37,0.00,,,0.00,189.000000,,2013-05-12 14:42:00,
2013-05-12 09:11:00,63.0,32.0,-100.00,WNW,300,6.0,11.0,31,0.00,,,0.00,405.000000,,2013-05-12 15:11:00,
2013-05-12 09:21:00,63.0,32.0,-100.00,WNW,300,6.0,11.0,31,0.00,,,0.00,405.000000,,2013-05-12 15:21:00,
2013-05-12 09:33:00,63.0,32.0,-100.00,WNW,300,6.0,11.0,31,0.00,,,0.00,405.000000,,2013-05-12 15:33:00,
2013-05-12 09:42:00,63.0,32.0,-100.00,WNW,300,6.0,11.0,31,0.00,,,0.00,405.000000,,2013-05-12 15:42:00,
2013-05-12 10:12:00,65.0,34.0,-100.00,WNW,301,5.0,10.0,32,0.00,,,0.00,620.000000,,2013-05-12 16:12:00,
2013-05-12 10:23:00,65.0,34.0,-100.00,WNW,301,5.0,10.0,32,0.00,,,0.00,620.000000,,2013-05-12 16:23:00,
2013-05-12 10:32:00,65.0,34.0,-100.00,WNW,301,5.0,10.0,32,0.00,,,0.00,620.000000,,2013-05-12 16:32:00,
2013-05-12 10:42:00,65.0,34.0,-100.00,WNW,301,5.0,10.0,32,0.00,,,0.00,620.000000,,2013-05-12 16:42:00,
2013-05-12 11:11:00,67.0,35.0,-100.00,NW,312,5.0,14.0,30,0.00,,,0.00,814.000000,,2013-05-12 17:11:00,
2013-05-12 11:22:00,67.0,35.0,-100.00,NW,312,5.0,14.0,30,0.00,,,0.00,814.000000,,2013-05-12 17:22:00,
2013-05-12 11:32:00,67.0,35.0,-100.00,NW,312,5.0,14.0,30,0.00,,,0.00,814.000000,,2013-05-12 17:32:00,
2013-05-12 11:42:00,67.0,35.0,-100.00,NW,312,5.0,14.0,30,0.00,,,0.00,814.000000,,2013-05-12 17:42:00,
2013-05-12 12:12:00,68.0,31.0,-100.00,NW,322,5.0,14.0,25,0.00,,,0.00,968.000000,,2013-05-12 18:12:00,
2013-05-12 12:22:00,68.0,31.0,-100.00,NW,322,5.0,14.0,25,0.00,,,0.00,968.000000,,2013-05-12 18:22:00,
2013-05-12 12:31:00,68.0,31.0,-100.00,NW,322,5.0,14.0,25,0.00,,,0.00,968.000000,,2013-05-12 18:31:00,
2013-05-12 12:41:00,68.0,31.0,-100.00,NW,322,5.0,14.0,25,0.00,,,0.00,968.000000,,2013-05-12 18:41:00,
2013-05-12 13:11:00,69.0,30.0,-100.00,WNW,293,5.0,14.0,23,0.00,,,0.00,980.000000,,2013-05-12 19:11:00,
2013-05-12 13:21:00,69.0,30.0,-100.00,WNW,293,5.0,14.0,23,0.00,,,0.00,980.000000,,2013-05-12 19:21:00,
2013-05-12 13:32:00,69.0,30.0,-100.00,WNW,293,5.0,14.0,23,0.00,,,0.00,980.000000,,2013-05-12 19:32:00,
2013-05-12 13:41:00,69.0,30.0,-100.00,WNW,293,5.0,14.0,23,0.00,,,0.00,980.000000,,2013-05-12 19:41:00,
2013-05-12 14:11:00,72.0,30.0,-100.00,West,274,4.0,17.0,21,0.00,,,0.00,1057.000000,,2013-05-12 20:11:00,
2013-05-12 14:21:00,72.0,30.0,-100.00,West,274,4.0,17.0,21,0.00,,,0.00,1057.000000,,2013-05-12 20:21:00,
2013-05-12 14:32:00,72.0,30.0,-100.00,West,274,4.0,17.0,21,0.00,,,0.00,1057.000000,,2013-05-12 20:32:00,
2013-05-12 14:41:00,72.0,30.0,-100.00,West,274,4.0,17.0,21,0.00,,,0.00,1057.000000,,2013-05-12 20:41:00,
2013-05-12 15:11:00,73.0,30.0,-100.00,NNW,332,7.0,17.0,20,0.00,,,0.00,992.000000,,2013-05-12 21:11:00,
2013-05-12 15:21:00,73.0,30.0,-100.00,NNW,332,7.0,17.0,20,0.00,,,0.00,992.000000,,2013-05-12 21:21:00,
2013-05-12 15:33:00,73.0,30.0,-100.00,NNW,332,7.0,17.0,20,0.00,,,0.00,992.000000,,2013-05-12 21:33:00,
2013-05-12 15:42:00,73.0,30.0,-100.00,NNW,332,7.0,17.0,20,0.00,,,0.00,992.000000,,2013-05-12 21:42:00,
2013-05-12 16:12:00,75.0,31.0,-100.00,NW,321,9.0,18.0,20,0.00,,,0.00,940.000000,,2013-05-12 22:12:00,
2013-05-12 16:23:00,75.0,31.0,-100.00,NW,321,9.0,18.0,20,0.00,,,0.00,940.000000,,2013-05-12 22:23:00,
2013-05-12 16:32:00,75.0,31.0,-100.00,NW,321,9.0,18.0,20,0.00,,,0.00,940.000000,,2013-05-12 22:32:00,
2013-05-12 16:42:00,75.0,31.0,-100.00,NW,321,9.0,18.0,20,0.00,,,0.00,940.000000,,2013-05-12 22:42:00,
2013-05-12 17:12:00,71.0,29.0,-100.00,NNW,343,3.0,16.0,21,0.00,,,0.00,715.000000,,2013-05-12 23:12:00,
2013-05-12 17:22:00,71.0,29.0,-100.00,NNW,343,3.0,16.0,21,0.00,,,0.00,715.000000,,2013-05-12 23:22:00,
2013-05-12 17:32:00,71.0,29.0,-100.00,NNW,343,3.0,16.0,21,0.00,,,0.00,715.000000,,2013-05-12 23:32:00,
2013-05-12 17:42:00,71.0,29.0,-100.00,NNW,343,3.0,16.0,21,0.00,,,0.00,715.000000,,2013-05-12 23:42:00,
2013-05-12 18:11:00,71.0,30.0,-100.00,North,351,7.0,14.0,22,0.00,,,0.00,533.000000,,2013-05-13 00:11:00,
2013-05-12 18:21:00,71.0,30.0,-100.00,North,351,7.0,14.0,22,0.00,,,0.00,533.000000,,2013-05-13 00:21:00,
2013-05-12 18:32:00,71.0,30.0,-100.00,North,351,7.0,14.0,22,0.00,,,0.00,533.000000,,2013-05-13 00:32:00,
2013-05-12 18:41:00,71.0,30.0,-100.00,North,351,7.0,14.0,22,0.00,,,0.00,533.000000,,2013-05-13 00:41:00,
2013-05-12 19:11:00,71.0,30.0,-100.00,NW,312,5.0,11.0,22,0.00,,,0.00,315.000000,,2013-05-13 01:11:00,
2013-05-12 19:22:00,71.0,30.0,-100.00,NW,312,5.0,11.0,22,0.00,,,0.00,315.000000,,2013-05-13 01:22:00,
2013-05-12 19:31:00,71.0,30.0,-100.00,NW,312,5.0,11.0,22,0.00,,,0.00,315.000000,,2013-05-13 01:31:00,
2013-05-12 19:41:00,71.0,30.0,-100.00,NW,312,5.0,11.0,22,0.00,,,0.00,315.000000,,2013-05-13 01:41:00,
2013-05-12 20:11:00,66.0,32.0,-100.00,WSW,249,3.0,8.0,28,0.00,,,0.00,154.000000,,2013-05-13 02:11:00,
2013-05-12 20:21:00,66.0,32.0,-100.00,WSW,249,3.0,8.0,28,0.00,,,0.00,154.000000,,2013-05-13 02:21:00,
2013-05-12 20:31:00,66.0,32.0,-100.00,WSW,249,3.0,8.0,28,0.00,,,0.00,154.000000,,2013-05-13 02:31:00,
2013-05-12 20:41:00,66.0,32.0,-100.00,WSW,249,3.0,8.0,28,0.00,,,0.00,154.000000,,2013-05-13 02:41:00,
2013-05-12 21:11:00,61.0,30.0,-100.00,SW,216,6.0,8.0,31,0.00,,,0.00,11.000000,,2013-05-13 03:11:00,
2013-05-12 21:21:00,61.0,30.0,-100.00,SW,216,6.0,8.0,31,0.00,,,0.00,11.000000,,2013-05-13 03:21:00,
2013-05-12 21:32:00,61.0,30.0,-100.00,SW,216,6.0,8.0,31,0.00,,,0.00,11.000000,,2013-05-13 03:32:00,
2013-05-12 21:42:00,61.0,30.0,-100.00,SW,216,6.0,8.0,31,0.00,,,0.00,11.000000,,2013-05-13 03:42:00,
2013-05-12 22:12:00,59.0,29.0,-100.00,SSW,193,7.0,10.0,32,0.00,,,0.00,0.000000,,2013-05-13 04:12:00,
2013-05-12 22:23:00,59.0,29.0,-100.00,SSW,193,7.0,10.0,32,0.00,,,0.00,0.000000,,2013-05-13 04:23:00,
2013-05-12 22:32:00,59.0,29.0,-100.00,SSW,193,7.0,10.0,32,0.00,,,0.00,0.000000,,2013-05-13 04:32:00,
2013-05-12 22:41:00,59.0,29.0,-100.00,SSW,193,7.0,10.0,32,0.00,,,0.00,0.000000,,2013-05-13 04:41:00,
2013-05-12 23:11:00,60.0,28.0,-100.00,SSW,203,8.0,12.0,30,0.00,,,0.00,0.000000,,2013-05-13 05:11:00,
2013-05-12 23:21:00,60.0,28.0,-100.00,SSW,203,8.0,12.0,30,0.00,,,0.00,0.000000,,2013-05-13 05:21:00,
2013-05-12 23:32:00,60.0,28.0,-100.00,SSW,203,8.0,12.0,30,0.00,,,0.00,0.000000,,2013-05-13 05:32:00,
2013-05-12 23:42:00,60.0,28.0,-100.00,SSW,203,8.0,12.0,30,0.00,,,0.00,0.000000,,2013-05-13 05:42:00,